Location: Kervinic
(48.4279°N, 4.7373°W)
Time: 17:59:28
(UTC+00:00)

Terra - Pass Details

Date: 09 April 2020
Orbit: 701 x 703 km, 98.2° (Epoch: 04 June)

Event Time Altitude Azimuth Distance (km) Brightness Sun altitude
Exits shadow 22:08:25 76° 10° (N) 732 1.8 -26.5°
Drops below altitude 10° 22:12:51 10° 347° (NNW) 2,183 5.2 -27.0°
Sets 22:15:07 0° 347° (NNW) 3,107 6.2 -27.2°
